Retour au catalogue

TIANHUI 5A

ActifScienceSSO
NORAD 58199·PAYLOAD·🇨🇳 China

Lancé Oct 31, 2023 depuis Taiyuan Satellite Launch Center

Loading…

Prochains Passages (prochaines 24 heures)

TLE

FraisSource: Space-Track

Époque: Sep 14, 2026, 11:18 UTC

1 58199U 23168A   26257.47123618  .00000267  00000-0  35392-4 0  9997
2 58199  97.8214 263.5822 0001535  89.4726 270.6667 14.87584771155875

Suivez TIANHUI 5A en temps réel avec AllMySat

Download on the App Store